Zurück zum Katalog

CZ-6A DEB

AktivSSO
NORAD 56668·DEBRIS·🇨🇳 China

Gestartet Nov 11, 2022 von Taiyuan Satellite Launch Center

Loading…

Nächste Überflüge (nächste 24 Stunden)

TLE

AktuellSource: Space-Track

Epoche: Sep 14, 2026, 15:41 UTC

1 56668U 22151AGU 26257.65405026  .00002113  00000-0  64990-3 0  9990
2 56668  98.8208 322.4453 0034238 109.3444 251.1451 14.42276317193331

Verfolge CZ-6A DEB in Echtzeit mit AllMySat

Download on the App Store